Regional Weather Roundup
Issued by NWS

Home | Current Version | Previous Version | Text Only | Print | Product List | Glossary Off
Versions: 1 2 3 4 5 6 7 8 9 10 11 12 13 14 15 16 17 18 19 20 21 22 23 24 25 26 27 28 29 30 31 32 33 34 35 36 37 38 39 40 41 42 43 44 45 46 47 48 49 50

000
ASUS43 KDTX 181210
RWRMI
MICHIGAN HOURLY REGIONAL WEATHER ROUNDUP
NATIONAL WEATHER SERVICE DETROIT/PONTIAC MI
700 AM EST THU DEC 18 2014

NOTE: "FAIR" INDICATES FEW OR NO CLOUDS BELOW 12,000 FEET WITH NO
SIGNIFICANT WEATHER AND/OR OBSTRUCTION TO VISIBILITY.

MIZ047>049-052>055-059>063-066>070-074>076-081>083-181300-
SOUTHEAST LOWER MICHIGAN

CITY           SKY/WX    TMP DP  RH WIND       PRES   REMARKS
ADRIAN         CLOUDY    29  22  75 NW6       30.21S WCI  23
6HR MIN TEMP:  28; 6HR MAX TEMP:  29;

ALMA           CLOUDY    30  28  92 W6        30.18R WCI  24
ANN ARBOR      CLOUDY    29  22  75 W9        30.19R WCI  20
BAD AXE        CLOUDY    27  24  91 N13       30.16R WCI  16
6HR MIN TEMP:  27; 6HR MAX TEMP:  28;

CARO           CLOUDY    30  27  88 N6        30.16R WCI  24
DETROIT CITY   CLOUDY    32  24  72 W7        30.19R WCI  26
6HR MIN TEMP:  31; 6HR MAX TEMP:  32;

DETROIT        CLOUDY    30  23  75 W7        30.20R WCI  23
6HR MIN TEMP:  29; 6HR MAX TEMP:  30;

FLINT          CLOUDY    31  25  78 W9        30.17S WCI  23
6HR MIN TEMP:  30; 6HR MAX TEMP:  31;

GROSSE ILE     CLOUDY    30  23  74 W6        30.19S WCI  24
HILLSDALE      CLOUDY    28  25  89 W5        30.19S WCI  23
6HR MIN TEMP:  28; 6HR MAX TEMP:  28;

HOWELL         CLOUDY    29  26  87 W7        30.17R WCI  22
6HR MIN TEMP:  27; 6HR MAX TEMP:  29;


CITY           SKY/WX    TMP DP  RH WIND       PRES   REMARKS
JACKSON        CLOUDY    29  23  78 W7        30.18S WCI  22
6HR MIN TEMP:  28; 6HR MAX TEMP:  29;

LAMBERTVILLE   CLOUDY    32  25  74 W7        30.22R WCI  26
LANSING        CLOUDY    29  24  82 W8        30.19R WCI  21
6HR MIN TEMP:  28; 6HR MAX TEMP:  29;

LAPEER         CLOUDY    29  28  93 NW3       30.16R
MASON          CLOUDY    29  24  82 W6        30.18S WCI  23
MONROE         CLOUDY    30  25  80 W6        30.19S WCI  24
MT. CLEMENS    CLOUDY    30  30  99 W6        30.15S WCI  24
6HR MIN TEMP:  29; 6HR MAX TEMP:  30;

PONTIAC        CLOUDY    29  24  82 W9        30.16R WCI  20
6HR MIN TEMP:  27; 6HR MAX TEMP:  29;

PORT HOPE        N/A     28  24  85 NW8       30.14  WCI  20
6HR MIN TEMP:  28; 6HR MAX TEMP:  30;

PORT HURON     LGT SNOW  28  28 100 CALM      30.17R
TRI CITIES     CLOUDY    32  26  78 N9        30.18R WCI  24
6HR MIN TEMP:  30; 6HR MAX TEMP:  32;

TROY           CLOUDY    32  26  79 W5        30.19S WCI  27
SAGINAW HB     CLOUDY    32  30  93 NW3       30.17R
$$
MIZ043>046-050>051-056>058-064>065-071>073-077>080-181300-
SOUTHWEST LOWER MICHIGAN

CITY           SKY/WX    TMP DP  RH WIND       PRES   REMARKS
BATTLE CREEK   CLOUDY    30  23  75 W8        30.21R WCI  22
6HR MIN TEMP:  29; 6HR MAX TEMP:  30;

BENTON HARBOR  CLOUDY    28  22  78 W3        30.23F
6HR MIN TEMP:  27; 6HR MAX TEMP:  28;

BIG RAPIDS     CLOUDY    29  27  92 NW10      30.17R WCI  20
6HR MIN TEMP:  29; 6HR MAX TEMP:  30;

COLDWATER      CLOUDY    28  24  84 W5        30.21R WCI  23
6HR MIN TEMP:  28; 6HR MAX TEMP:  28;

FREMONT        LGT SNOW  30  29  96 W5        30.19S WCI  25
6HR MIN TEMP:  29; 6HR MAX TEMP:  30;

HOLLAND        CLOUDY    33  25  72 W6        30.22S WCI  28
6HR MIN TEMP:  32; 6HR MAX TEMP:  33;

GRAND RAPIDS   CLOUDY    30  25  81 W9        30.20R WCI  22
6HR MIN TEMP:  29; 6HR MAX TEMP:  30;

IONIA          CLOUDY    31  27  85 W8        30.18R WCI  23
KALAMAZOO      CLOUDY    30  23  75 W5        30.22S WCI  25
6HR MIN TEMP:  29; 6HR MAX TEMP:  30;

LUDINGTON      CLOUDY    31  28  86 N8        30.21S WCI  24
6HR MIN TEMP:  31; 6HR MAX TEMP:  32;

MARSHALL       CLOUDY    28  23  82 W3        30.20R
MOUNT PLEASANT CLOUDY    30  26  83 NW3       30.17R
MUSKEGON       FLURRIES  32  28  85 W9        30.21S WCI  24
6HR MIN TEMP:  32; 6HR MAX TEMP:  33; 6HR PCP: TRACE;

SOUTH HAVEN    CLOUDY    31  25  77 W3        30.23S
$$
MIZ016>042-181300-
NORTHERN LOWER MICHIGAN

CITY           SKY/WX    TMP DP  RH WIND       PRES   REMARKS
ALPENA         CLOUDY    24  20  84 NW6       30.19S WCI  17
6HR MIN TEMP:  24; 6HR MAX TEMP:  25;

BEAVER ISLAND  CLEAR     21  16  81 NE6       30.24S WCI  13
6HR MIN TEMP:  21; 6HR MAX TEMP:  25;

BELLAIRE       CLOUDY    26  23  87 N8        30.20F WCI  18
6HR MIN TEMP:  26; 6HR MAX TEMP:  28;

CADILLAC       CLOUDY    26  23  89 N5        30.14R WCI  20
CHARLEVOIX     CLOUDY    25  22  89 NE10      30.24S WCI  15
6HR MIN TEMP:  25; 6HR MAX TEMP:  27;

FRANKFORT      CLOUDY    29  26  87 N7        30.20R WCI  22
GAYLORD        CLOUDY    20  19  96 N6        30.15F WCI  12
6HR MIN TEMP:  20; 6HR MAX TEMP:  23;

GRAYLING       CLOUDY    23  22  95 N9        30.16S WCI  13
6HR MIN TEMP:  23; 6HR MAX TEMP:  28;

HARBOR SPRINGS CLOUDY    23  19  85 N8        30.21F WCI  14
HOUGHTON LAKE  CLOUDY    24  22  91 N8        30.15R WCI  15
6HR MIN TEMP:  24; 6HR MAX TEMP:  26;

MANISTEE       CLOUDY    30  25  80 N3        30.21R
OSCODA         CLOUDY    25  22  88 NW12G17   30.17S WCI  14
PELLSTON       CLOUDY    21  17  84 N9        30.23S WCI  11
6HR MIN TEMP:  21; 6HR MAX TEMP:  24;

ROGERS CITY    CLOUDY    25  23  93 NW7       30.22R WCI  17
TRAVERSE CITY  CLOUDY    29  24  82 N12       30.19S WCI  19
6HR MIN TEMP:  28; 6HR MAX TEMP:  31; 6HR PCP:  0.01;

$$
MIZ007>008-015-181300-
EASTERN UPPER MICHIGAN

CITY           SKY/WX    TMP DP  RH WIND       PRES   REMARKS
KINROSS        PTCLDY    12   9  85 N8        30.24S WCI   1
6HR MIN TEMP:  10; 6HR MAX TEMP:  19;

MACKINAC ISLAN PTCLDY    18  15  88 N10G16    30.23S WCI   6
6HR MIN TEMP:  18; 6HR MAX TEMP:  24;

NEWBERRY       CLEAR     14  13  96 N7        30.25R WCI   4
6HR MIN TEMP:  13; 6HR MAX TEMP:  22;

S. S. MARIE    PTCLDY    12   2  64 N6        30.25F WCI   3
6HR MIN TEMP:  12; 6HR MAX TEMP:  19;

MUNISING         N/A     29  21  72 NE18G28   30.27S WCI  16
6HR MIN TEMP:  29; 6HR MAX TEMP:  30;

$$
MIZ004>006-011>014-085-181300-
CENTRAL UPPER MICHIGAN

CITY           SKY/WX    TMP DP  RH WIND       PRES   REMARKS
MANISTIQUE     CLEAR     19  18  93 N10       30.25R WCI   8
ESCANABA       PTCLDY    23  16  74 N5        30.25S WCI  17
6HR MIN TEMP:  23; 6HR MAX TEMP:  27;

MENOMINEE      CLOUDY    27  19  74 N8        30.26R WCI  18
6HR MIN TEMP:  27; 6HR MAX TEMP:  28;

SAWYER-GWINN   CLOUDY    21  18  86 N6        30.24S WCI  14
$$
MIZ001>003-009>011-084-181300-
WESTERN UPPER MICHIGAN

CITY           SKY/WX    TMP DP  RH WIND       PRES   REMARKS
IRON MOUNTAIN  CLOUDY    23  18  81 N9        30.24S WCI  13
6HR MIN TEMP:  23; 6HR MAX TEMP:  25;

HOUGHTON       PTCLDY    13  10  88 NE6       30.28S WCI   4
6HR MIN TEMP:   2; 6HR MAX TEMP:  18;

COPPER HARBOR    N/A     27  19  72 E7        30.32R WCI  19
6HR MIN TEMP:  26; 6HR MAX TEMP:  27;

IRONWOOD       CLOUDY    19  18  93 E5        30.25F WCI  13
6HR MIN TEMP:  19; 6HR MAX TEMP:  23;

$$

ABBREVIATIONS USED IN REMARKS
   TC - TEMPERATURE IN CELSIUS
  WCI - WIND CHILL INDEX
   HX - HEAT INDEX
  VSB - VISIBILITY



USA.gov is the U.S. government's official web portal to all federal, state and local government web resources and services.